Location: Newark
(13.6797°N, 8.5297°E)
Time: 21:03:37
(UTC+00:00)

Courier 1B Rocket - Pass Details

Date: 27 January 2020
Orbit: 920 x 1202 km, 28.2° (Epoch: 19 February)

Event Time Altitude Azimuth Distance (km) Brightness Sun altitude
Rises 06:49:17 0° 229° (SW) 4,086 8.0 11.8°
Reaches altitude 10° 06:52:14 10° 224° (SW) 3,127 7.5 12.5°
Maximum altitude 06:59:46 52° 150° (SSE) 1,447 6.7 14.2°
Drops below altitude 10° 07:07:06 10° 76° (ENE) 3,043 8.6 15.8°
Sets 07:09:56 0° 72° (ENE) 3,970 8.9 16.4°
